Regional Weather Roundup
Issued by NWS Newport/Morehead, NC

Home | Current Version | Previous Version | Text Only | Print | Product List | Glossary On
Versions: 1 2 3 4 5 6 7 8 9 10 11 12 13 14 15 16 17 18 19 20 21 22 23 24 25 26 27 28 29 30 31 32 33 34 35 36 37 38 39 40 41 42 43 44 45 46 47 48 49 50
000
ASUS42 KMHX 270825
RWRMHX
WEATHER ROUNDUP FOR EASTERN NORTH CAROLINA
NATIONAL WEATHER SERVICE NEWPORT/MOREHEAD CITY NC
400 AM EDT MON MAR 27 2017

NOTE: "FAIR" INDICATES FEW OR NO CLOUDS BELOW 12,000 FEET
WITH NO SIGNIFICANT WEATHER AND/OR OBSTRUCTIONS TO VISIBILITY

NCZ015>017-031-032-045>047-102-103-270900-
NORTH COAST

CITY           SKY/WX    TMP DP  RH WIND       PRES   REMARKS
EDENTON        PTCLDY    58  55  87 CALM      30.15S
ELIZABETH CITY CLEAR     53  52  96 S3        30.15
KITTY HAWK     NOT AVBL
MANTEO         CLEAR     57  54  89 S3        30.16S

$$

NCZ045>047-081-094-103-104-270900-
CENTRAL COAST

CITY           SKY/WX    TMP DP  RH WIND       PRES   REMARKS
FRISCO         CLEAR     66  52  60 S8        30.15F

$$

NCZ095-097-098-100-101-270900-
SOUTHERN COAST

CITY           SKY/WX    TMP DP  RH WIND       PRES   REMARKS
BEAUFORT       CLEAR     61  57  87 SE5       30.13F
CEDAR ISLAND   NOT AVBL
JACKSONVILLE   PTCLDY    52  52 100 CALM      30.12F
PINEY ISLAND   MOSUNNY  N/A N/A N/A SE5       30.13F
WILMINGTON     CLEAR     51  51 100 CALM      30.12F


$$

NCZ011>013-027>030-043-044-078>080-089-090>093-098-270900-
COASTAL PLAIN

CITY           SKY/WX    TMP DP  RH WIND       PRES   REMARKS
AHOSKIE          N/A     55  54  96 CALM      30.13F
CLINTON        CLEAR     57  56  94 CALM      30.13S
ELIZABETHTOWN  CLEAR     56  55  94 CALM      30.12S
GOLDSBORO      CLEAR     57  57 100 CALM      30.11F
GREENVILLE     CLEAR     55  55 100 CALM      30.14F
HAVELOCK       NOT AVBL
KENANSVILLE    CLEAR     50  50 100 CALM      30.13F
KINSTON        CLEAR     53  52  97 CALM      30.14F
NEW BERN       PTCLDY    50  50 100 CALM      30.15S FOG
RICHLANDS      CLEAR     48  46  93 CALM      30.13F
ROCKY MOUNT    PTCLDY    56  55  97 S3        30.12F
WASHINGTON     CLEAR     58  55  90 CALM      30.14F
WHITEVILLE     CLEAR     55  53  91 CALM      30.12S

$$

AMZ130-135-150-152-154-156-158-170-250-252-270-ANZ085-086-088-633-658-670-270900-
MARINE OBSERVATIONS

STATION/POSITION TIME  TEMP    WIND        PRES    WAVE   SWELL
                       AIR SEA DIR/SP/G            HT/PER HT/PER
                 (UTC) (F)     (DEG/KT/KT) (MB)    (FT/S) (FT/S)
CHESAPEAKE LIGHT NOT AVBL
64 E VA BEACH    0750   55 51  170/  8/ 10 1020.9    4/ 8   3/ 8
DUCK             0800   60 50  170/  9/ 10 1020.3
2 E DUCK         0800      51                N/A     3/ 7
OREGON INLET     0800   57 56  130/  5/  6 1020.9
13E OREGON INLT  0748      51                N/A     4/ 8   3/ 8
HATTERAS CG      0800   67 60  170/  9/ 12 1020.6
DIAMOND BUOY     0750   69 76  170/ 14/ 17 1021.2    4/10   3/10
CAPE LOOKOUT     0800   66     150/  8/  8 1020.1
BEAUFORT LAB     0800   62 58  120/  3/  4 1019.5
30 SE NEW RVR IN 0708   66     180/  4/  8 1020.9
30 SE NEW RVR IN 0813      64                N/A     4/ 9   2/18
27 SE WRIGHTSVLE 0708   67 62  190/  8/ 12 1019.7
5 SE WRIGHTSVLE  0708   62 60  200/  8/ 10 1020.3
225 S CAPE HAT   0750   68 72  120/ 12/ 14 1020.5    5/ 8   5/ 8
41 SE CHARLESTON 0750   71 74  170/ 12/ 14 1019.1    5/10   3/10

$$



USA.gov is the U.S. government's official web portal to all federal, state and local government web resources and services.